Beatrice, NE

5:20 AM CDT on June 25, 2017 (GMT -0500)
Beatrice Municipal

Weather History for KBIE - June, 2013

Change the Weather History Date:

Tuesday, June 11, 2013

  Actual Average Record
Temperature  
Mean Temperature 84 °F -  
Max Temperature 94 °F 83 °F 98 °F (1977)
Min Temperature 73 °F 60 °F 46 °F (1979)
Cooling Degree Days 18    
Growing Degree Days 34 (Base 50)    
Moisture  
Dew Point 64 °F    
Average Humidity 57    
Maximum Humidity 88    
Minimum Humidity 31    
Precipitation  
Precipitation 0.07 in - - ()
Sea Level Pressure  
Sea Level Pressure 29.75 in    
Wind  
Wind Speed 13 mph (South)    
Max Wind Speed 22 mph    
Max Gust Speed 34 mph    
Visibility 10 miles    
Events Rain , Thunderstorm    
Averages and records for this station are not official NWS values.
T = Trace of Precipitation, MM = Missing Value Source: NWS Daily Summary

Daily Weather History Graph

Daily Weather History Graph

Search for Another Location

Airport or City:

Trip Planner

Search our weather history database for the weather conditions in past years. The results will help you decide how hot, cold, wet, or windy it might be!

Date:

Astronomy

Jun. 11, 2013 Rise Set
Actual Time 5:56 AM CDT 8:56 PM CDT
Civil Twilight 5:23 AM CDT 9:29 PM CDT
Nautical Twilight 4:42 AM CDT 10:11 PM CDT
Astronomical Twilight 3:53 AM CDT 11:00 PM CDT
Moon 8:41 AM CDT (6/11) 11:00 PM CDT (6/11)
Length of Visible Light 16h 06m
Length of Day
15h 00m
Waxing Crescent, 8% of the Moon is Illuminated
Jun 11
Waxing Crescent
Jun 16
First Quarter
Jun 23
Full
Jun 29
Last Quarter
Jul 8
New

Hourly Weather History & Observations

Time (CDT) Temp. Heat Index Dew Point Humidity Pressure Visibility Wind Dir Wind Speed Gust Speed Precip Events Conditions
12:15 AM 77.2 °F - 64.8 °F 65% 29.79 in 10.0 mi SE 13.8 mph 18.4 mph N/A   Clear
12:35 AM 77.0 °F - 65.5 °F 67% 29.78 in 10.0 mi SSE 13.8 mph - N/A   Clear
12:55 AM 76.6 °F - 66.2 °F 70% 29.78 in 10.0 mi SE 11.5 mph - N/A   Clear
1:15 AM 76.1 °F - 66.7 °F 73% 29.78 in 10.0 mi SE 12.7 mph - N/A   Clear
1:35 AM 75.6 °F - 67.6 °F 76% 29.78 in 10.0 mi SSE 10.4 mph - N/A   Clear
1:55 AM 75.4 °F - 68.5 °F 79% 29.78 in 10.0 mi SE 10.4 mph - N/A   Clear
2:15 AM 75.2 °F - 68.9 °F 81% 29.78 in 10.0 mi SE 8.1 mph - N/A   Clear
2:35 AM 74.7 °F - 69.4 °F 84% 29.77 in 10.0 mi SE 6.9 mph - N/A   Clear
2:55 AM 74.5 °F - 69.8 °F 85% 29.77 in 10.0 mi SE 6.9 mph - N/A   Clear
3:55 AM 73.6 °F - 69.8 °F 88% 29.77 in 10.0 mi South 6.9 mph - N/A   Clear
4:15 AM 73.6 °F - 69.8 °F 88% 29.77 in 10.0 mi South 9.2 mph - N/A   Clear
4:35 AM 74.1 °F - 69.4 °F 85% 29.76 in 10.0 mi South 10.4 mph - N/A Thunderstorm Clear
4:55 AM 74.7 °F - 68.9 °F 82% 29.76 in 10.0 mi South 9.2 mph - N/A   Clear
5:15 AM 74.8 °F - 68.0 °F 79% 29.75 in 10.0 mi South 8.1 mph - N/A   Clear
5:35 AM 76.8 °F - 66.6 °F 70% 29.75 in 10.0 mi South 15.0 mph 20.7 mph N/A   Clear
5:55 AM 77.0 °F - 66.2 °F 69% 29.74 in 10.0 mi South 17.3 mph - N/A   Scattered Clouds
6:15 AM 77.7 °F - 64.8 °F 64% 29.76 in 10.0 mi SSW 12.7 mph 18.4 mph N/A   Clear
6:35 AM 77.5 °F - 64.4 °F 64% 29.76 in 10.0 mi South 9.2 mph 18.4 mph N/A   Clear
6:55 AM 77.0 °F - 63.5 °F 63% 29.76 in 10.0 mi South 13.8 mph - N/A   Clear
7:15 AM 77.2 °F - 63.5 °F 63% 29.78 in 10.0 mi WNW 6.9 mph - N/A   Clear
7:35 AM 77.2 °F - 63.7 °F 63% 29.79 in 10.0 mi West 4.6 mph - N/A   Clear
7:55 AM 76.8 °F - 64.4 °F 65% 29.82 in 10.0 mi West 8.1 mph - N/A Thunderstorm Clear
8:15 AM 75.9 °F - 67.3 °F 74% 29.83 in 7.0 mi West 16.1 mph - 0.02 in Rain , Thunderstorm Rain
8:35 AM 73.6 °F - 69.3 °F 86% 29.79 in 10.0 mi SSW 8.1 mph 19.6 mph 0.07 in Rain , Thunderstorm Light Thunderstorms and Rain
8:55 AM 74.7 °F - 68.0 °F 80% 29.78 in 10.0 mi SSW 11.5 mph 21.9 mph 0.07 in   Clear
9:15 AM 76.5 °F - 67.1 °F 73% 29.78 in 10.0 mi SSW 12.7 mph - N/A   Clear
9:35 AM 76.6 °F - 68.9 °F 77% 29.79 in 10.0 mi SSW 9.2 mph - N/A Thunderstorm Clear
9:55 AM 79.0 °F - 69.1 °F 72% 29.79 in 10.0 mi South 10.4 mph - N/A   Clear
10:15 AM 79.9 °F - 67.8 °F 66% 29.77 in 10.0 mi South 12.7 mph - N/A   Clear
10:35 AM 81.3 °F 83.5 °F 66.4 °F 60% 29.80 in 10.0 mi South 6.9 mph - N/A   Clear
10:55 AM 81.9 °F 84.1 °F 66.4 °F 59% 29.78 in 10.0 mi South 12.7 mph 19.6 mph N/A Thunderstorm Clear
11:15 AM 85.3 °F 87.9 °F 67.1 °F 54% 29.78 in 10.0 mi South 13.8 mph 19.6 mph N/A Thunderstorm Thunderstorm
11:35 AM 85.5 °F 87.4 °F 65.7 °F 51% 29.78 in 10.0 mi South 13.8 mph 23.0 mph N/A Thunderstorm Clear
11:55 AM 89.6 °F 91.8 °F 65.8 °F 45% 29.78 in 10.0 mi South 19.6 mph - N/A Thunderstorm Clear
12:15 PM 87.8 °F 88.8 °F 63.1 °F 44% 29.78 in 10.0 mi South 15.0 mph 23.0 mph N/A Thunderstorm Thunderstorm
12:35 PM 86.7 °F 87.3 °F 62.6 °F 44% 29.80 in 10.0 mi South 17.3 mph 20.7 mph N/A Thunderstorm Thunderstorm
12:55 PM 84.6 °F 84.8 °F 61.0 °F 45% 29.81 in 10.0 mi South 12.7 mph - N/A Thunderstorm Clear
1:15 PM 83.7 °F 84.5 °F 62.8 °F 49% 29.82 in 10.0 mi South 12.7 mph - N/A Thunderstorm Clear
1:35 PM 83.5 °F 84.3 °F 62.2 °F 49% 29.81 in 10.0 mi South 11.5 mph 20.7 mph N/A Thunderstorm Thunderstorm
1:55 PM 83.3 °F 84.3 °F 63.1 °F 50% 29.81 in 10.0 mi South 11.5 mph - N/A Thunderstorm Clear
2:15 PM 83.5 °F 84.5 °F 63.3 °F 50% 29.81 in 10.0 mi SSE 9.2 mph - N/A   Clear
2:35 PM 84.9 °F 86.3 °F 64.2 °F 50% 29.80 in 10.0 mi SSE 11.5 mph - N/A Thunderstorm Thunderstorm
2:55 PM 85.6 °F 86.6 °F 63.3 °F 47% 29.79 in 10.0 mi SSE 10.4 mph - N/A   Clear
3:15 PM 86.9 °F 86.7 °F 60.6 °F 41% 29.78 in 10.0 mi SSE 12.7 mph - N/A   Clear
3:35 PM 88.5 °F 88.1 °F 59.9 °F 38% 29.78 in 10.0 mi SE 16.1 mph - N/A   Clear
3:55 PM 91.4 °F 91.4 °F 61.3 °F 36% 29.77 in 10.0 mi SE 18.4 mph 25.3 mph N/A   Clear
4:15 PM 91.6 °F 92.3 °F 62.4 °F 38% 29.75 in 10.0 mi SE 19.6 mph 25.3 mph N/A   Clear
4:35 PM 91.8 °F 93.4 °F 64.2 °F 40% 29.74 in 10.0 mi SE 19.6 mph 26.5 mph N/A   Clear
4:55 PM 93.2 °F 95.3 °F 64.8 °F 39% 29.74 in 10.0 mi SSE 17.3 mph - N/A   Clear
5:15 PM 94.6 °F 94.7 °F 60.8 °F 32% 29.73 in 10.0 mi South 20.7 mph 29.9 mph N/A   Clear
5:35 PM 94.5 °F 94.8 °F 61.0 °F 33% 29.72 in 10.0 mi SSE 18.4 mph 27.6 mph N/A   Clear
5:55 PM 94.1 °F 93.9 °F 60.3 °F 32% 29.71 in 10.0 mi South 21.9 mph 34.5 mph N/A   Clear
6:15 PM 93.6 °F 92.7 °F 58.8 °F 31% 29.70 in 10.0 mi SSE 19.6 mph 29.9 mph N/A   Clear
6:35 PM 93.0 °F 92.3 °F 59.2 °F 32% 29.69 in 10.0 mi South 20.7 mph 27.6 mph N/A   Clear
6:55 PM 92.3 °F 91.3 °F 58.8 °F 32% 29.68 in 10.0 mi South 19.6 mph 28.8 mph N/A   Clear
7:15 PM 91.0 °F 90.2 °F 59.0 °F 34% 29.68 in 10.0 mi South 18.4 mph 25.3 mph N/A   Clear
7:35 PM 89.8 °F 88.6 °F 58.3 °F 34% 29.68 in 10.0 mi SSE 20.7 mph 27.6 mph N/A   Clear
7:55 PM 87.8 °F 86.9 °F 58.6 °F 37% 29.68 in 10.0 mi SSE 16.1 mph 24.2 mph N/A   Clear
8:15 PM 86.9 °F 86.7 °F 60.6 °F 41% 29.68 in 10.0 mi SSE 18.4 mph 26.5 mph N/A   Clear
8:35 PM 86.2 °F 86.1 °F 60.6 °F 42% 29.68 in 10.0 mi South 16.1 mph 28.8 mph N/A   Clear
8:55 PM 85.3 °F 85.4 °F 61.2 °F 44% 29.68 in 10.0 mi South 19.6 mph 25.3 mph N/A   Clear
9:15 PM 84.6 °F 85.0 °F 61.9 °F 46% 29.68 in 10.0 mi South 19.6 mph 26.5 mph N/A   Clear
9:35 PM 83.7 °F 84.7 °F 63.0 °F 50% 29.69 in 10.0 mi South 17.3 mph 21.9 mph N/A   Clear
9:55 PM 83.3 °F 84.6 °F 63.9 °F 52% 29.69 in 10.0 mi South 17.3 mph 25.3 mph N/A   Clear
10:15 PM 83.3 °F 84.8 °F 64.4 °F 53% 29.69 in 10.0 mi South 18.4 mph 26.5 mph N/A   Clear
10:35 PM 82.6 °F 84.1 °F 64.6 °F 54% 29.69 in 10.0 mi South 18.4 mph 25.3 mph N/A   Clear
10:55 PM 82.4 °F 83.9 °F 64.4 °F 54% 29.69 in 10.0 mi South 16.1 mph 32.2 mph N/A   Clear
11:15 PM 82.4 °F 83.9 °F 64.0 °F 54% 29.70 in 10.0 mi South 17.3 mph 23.0 mph N/A   Clear
11:35 PM 82.0 °F 83.3 °F 63.5 °F 53% 29.70 in 10.0 mi South 18.4 mph 27.6 mph N/A   Clear
11:55 PM 82.0 °F 83.1 °F 62.8 °F 52% 29.70 in 10.0 mi South 16.1 mph 27.6 mph N/A   Clear